Time,TemperatureF,DewpointF,PressureIn,WindDirection,WindDirectionDegrees,WindSpeedMPH,WindSpeedGustMPH,Humidity,HourlyPrecipIn,Conditions,Clouds,dailyrainin,SoftwareType,DateUTC
2013-07-31 00:01:00,81.5,77.3,30.16,SE,127,0.0,3.0,87,0.00,,FEW023,0.00,VWS V14.01,2013-07-31 04:01:00,
2013-07-31 00:02:00,81.5,77.3,30.17,SE,127,0.0,3.0,87,0.00,,FEW023,0.00,VWS V14.01,2013-07-31 04:02:00,
2013-07-31 00:07:00,81.5,77.3,30.16,SE,127,0.0,3.0,87,0.00,,CLR,0.00,VWS V14.01,2013-07-31 04:07:00,
2013-07-31 00:12:00,81.5,77.3,30.15,SE,127,2.0,4.0,87,0.00,,CLR,0.00,VWS V14.01,2013-07-31 04:12:00,
2013-07-31 00:17:00,81.5,77.3,30.16,SE,141,0.0,6.0,87,0.00,,CLR,0.00,VWS V14.01,2013-07-31 04:17:00,
2013-07-31 00:22:00,81.5,77.3,30.15,SE,141,2.0,6.0,87,0.00,,CLR,0.00,VWS V14.01,2013-07-31 04:22:00,
2013-07-31 00:27:00,81.4,77.2,30.15,SE,129,0.0,6.0,87,0.00,,CLR,0.00,VWS V14.01,2013-07-31 04:27:00,
2013-07-31 00:32:00,81.4,77.2,30.15,SE,130,0.0,6.0,87,0.00,,CLR,0.00,VWS V14.01,2013-07-31 04:32:00,
2013-07-31 00:37:00,81.4,77.2,30.15,SE,130,1.0,6.0,87,0.00,,CLR,0.00,VWS V14.01,2013-07-31 04:37:00,
2013-07-31 00:42:00,81.3,77.1,30.15,SE,131,0.0,6.0,87,0.00,,CLR,0.00,VWS V14.01,2013-07-31 04:42:00,
2013-07-31 00:47:00,81.3,77.1,30.14,SE,131,0.0,6.0,87,0.00,,CLR,0.00,VWS V14.01,2013-07-31 04:47:00,
2013-07-31 00:52:00,81.3,77.1,30.15,SE,131,0.0,6.0,87,0.00,,CLR,0.00,VWS V14.01,2013-07-31 04:52:00,
2013-07-31 00:57:00,81.2,77.0,30.15,SE,131,0.0,6.0,87,0.00,,CLR,0.00,VWS V14.01,2013-07-31 04:57:00,
2013-07-31 01:02:00,81.2,77.0,30.16,SE,131,0.0,0.0,87,0.00,,CLR,0.00,VWS V14.01,2013-07-31 05:02:00,
2013-07-31 01:07:00,81.2,77.0,30.15,SE,131,0.0,0.0,87,0.00,,CLR,0.00,VWS V14.01,2013-07-31 05:07:00,
2013-07-31 01:12:00,81.1,76.9,30.15,SE,131,0.0,0.0,87,0.00,,CLR,0.00,VWS V14.01,2013-07-31 05:12:00,
2013-07-31 01:17:00,81.0,76.8,30.14,SE,131,0.0,0.0,87,0.00,,CLR,0.00,VWS V14.01,2013-07-31 05:17:00,
2013-07-31 01:22:00,80.9,76.7,30.14,SE,131,0.0,0.0,87,0.00,,CLR,0.00,VWS V14.01,2013-07-31 05:22:00,
2013-07-31 01:27:00,80.8,76.6,30.14,SE,131,0.0,0.0,87,0.00,,CLR,0.00,VWS V14.01,2013-07-31 05:27:00,
2013-07-31 01:32:00,80.7,76.5,30.13,SE,131,0.0,0.0,87,0.00,,CLR,0.00,VWS V14.01,2013-07-31 05:32:00,
2013-07-31 01:37:00,80.7,76.5,30.14,SE,131,0.0,0.0,87,0.00,,CLR,0.00,VWS V14.01,2013-07-31 05:37:00,
2013-07-31 01:42:00,80.6,76.7,30.14,SE,131,0.0,0.0,88,0.00,,CLR,0.00,VWS V14.01,2013-07-31 05:42:00,
2013-07-31 01:47:00,80.5,76.3,30.14,SE,131,0.0,0.0,87,0.00,,CLR,0.00,VWS V14.01,2013-07-31 05:47:00,
2013-07-31 01:52:00,80.4,76.2,30.13,SE,131,0.0,0.0,87,0.00,,CLR,0.00,VWS V14.01,2013-07-31 05:52:00,
2013-07-31 01:57:00,80.3,76.1,30.13,SE,131,0.0,0.0,87,0.00,,CLR,0.00,VWS V14.01,2013-07-31 05:57:00,
2013-07-31 02:02:00,80.3,76.1,30.13,SE,131,0.0,0.0,87,0.00,,CLR,0.00,VWS V14.01,2013-07-31 06:02:00,
2013-07-31 02:07:00,80.2,76.3,30.13,SE,131,0.0,0.0,88,0.00,,CLR,0.00,VWS V14.01,2013-07-31 06:07:00,
2013-07-31 02:12:00,80.1,76.2,30.12,SE,131,0.0,0.0,88,0.00,,CLR,0.00,VWS V14.01,2013-07-31 06:12:00,
2013-07-31 02:17:00,80.1,76.2,30.13,SE,131,0.0,0.0,88,0.00,,CLR,0.00,VWS V14.01,2013-07-31 06:17:00,
2013-07-31 02:22:00,80.0,76.1,30.12,SE,131,0.0,0.0,88,0.00,,CLR,0.00,VWS V14.01,2013-07-31 06:22:00,
2013-07-31 02:27:00,79.9,76.0,30.12,SE,130,0.0,0.0,88,0.00,,CLR,0.00,VWS V14.01,2013-07-31 06:27:00,
2013-07-31 02:32:00,79.9,76.0,30.12,SE,130,0.0,0.0,88,0.00,,CLR,0.00,VWS V14.01,2013-07-31 06:32:00,
2013-07-31 02:37:00,79.8,76.3,30.11,SE,129,0.0,0.0,89,0.00,,CLR,0.00,VWS V14.01,2013-07-31 06:37:00,
2013-07-31 02:42:00,79.8,76.3,30.11,SE,125,0.0,0.0,89,0.00,,CLR,0.00,VWS V14.01,2013-07-31 06:42:00,
2013-07-31 02:47:00,79.5,76.0,30.10,SE,125,0.0,0.0,89,0.00,,CLR,0.00,VWS V14.01,2013-07-31 06:47:00,
2013-07-31 02:52:00,79.4,75.9,30.11,SE,127,0.0,0.0,89,0.00,,CLR,0.00,VWS V14.01,2013-07-31 06:52:00,
2013-07-31 02:57:00,79.3,75.8,30.10,SE,128,0.0,0.0,89,0.00,,CLR,0.00,VWS V14.01,2013-07-31 06:57:00,
2013-07-31 03:02:00,79.3,75.8,30.11,SE,131,0.0,0.0,89,0.00,,CLR,0.00,VWS V14.01,2013-07-31 07:02:00,
2013-07-31 03:07:00,79.2,75.7,30.10,SE,131,0.0,0.0,89,0.00,,CLR,0.00,VWS V14.01,2013-07-31 07:07:00,
2013-07-31 03:12:00,79.2,75.7,30.09,SE,131,0.0,0.0,89,0.00,,CLR,0.00,VWS V14.01,2013-07-31 07:12:00,
2013-07-31 03:17:00,79.2,76.0,30.10,SE,131,0.0,0.0,90,0.00,,CLR,0.00,VWS V14.01,2013-07-31 07:17:00,
2013-07-31 03:22:00,79.1,75.6,30.10,SE,130,0.0,0.0,89,0.00,,CLR,0.00,VWS V14.01,2013-07-31 07:22:00,
2013-07-31 03:27:00,79.1,75.9,30.09,SE,130,0.0,0.0,90,0.00,,CLR,0.00,VWS V14.01,2013-07-31 07:27:00,
2013-07-31 03:32:00,79.0,75.8,30.09,SE,129,0.0,0.0,90,0.00,,CLR,0.00,VWS V14.01,2013-07-31 07:32:00,
2013-07-31 03:37:00,79.0,76.2,30.10,ESE,121,0.0,0.0,91,0.00,,CLR,0.00,VWS V14.01,2013-07-31 07:37:00,
2013-07-31 03:42:00,78.9,75.7,30.09,SE,128,0.0,0.0,90,0.00,,BKN032,0.00,VWS V14.01,2013-07-31 07:42:00,
2013-07-31 03:47:00,78.9,75.7,30.09,SE,130,0.0,0.0,90,0.00,,BKN032,0.00,VWS V14.01,2013-07-31 07:47:00,
2013-07-31 03:52:00,78.9,75.7,30.09,SE,131,0.0,0.0,90,0.00,,BKN030,0.00,VWS V14.01,2013-07-31 07:52:00,
2013-07-31 03:57:00,78.8,75.6,30.09,SE,131,0.0,0.0,90,0.00,,BKN030,0.00,VWS V14.01,2013-07-31 07:57:00,
2013-07-31 04:02:00,78.8,75.6,30.09,SE,131,0.0,0.0,90,0.00,,SCT027,0.00,VWS V14.01,2013-07-31 08:02:00,
2013-07-31 04:07:00,78.8,75.6,30.09,SE,130,0.0,1.0,90,0.00,,SCT027,0.00,VWS V14.01,2013-07-31 08:07:00,
2013-07-31 04:12:00,78.8,75.9,30.09,SE,131,0.0,1.0,91,0.00,,SCT027,0.00,VWS V14.01,2013-07-31 08:12:00,
2013-07-31 04:17:00,79.0,76.2,30.09,SE,131,0.0,1.0,91,0.00,,SCT027,0.00,VWS V14.01,2013-07-31 08:17:00,
2013-07-31 04:22:00,79.0,76.5,30.09,SE,131,0.0,1.0,92,0.00,,SCT027,0.00,VWS V14.01,2013-07-31 08:22:00,
2013-07-31 04:27:00,79.0,76.2,30.09,SE,131,0.0,1.0,91,0.00,,SCT027,0.00,VWS V14.01,2013-07-31 08:27:00,
2013-07-31 04:32:00,79.0,76.2,30.09,SE,131,0.0,1.0,91,0.00,,SCT027,0.00,VWS V14.01,2013-07-31 08:32:00,
2013-07-31 04:37:00,78.9,76.1,30.09,SE,131,0.0,1.0,91,0.00,,SCT027,0.00,VWS V14.01,2013-07-31 08:37:00,
2013-07-31 04:42:00,79.0,76.2,30.09,SE,131,0.0,1.0,91,0.00,,SCT027,0.00,VWS V14.01,2013-07-31 08:42:00,
2013-07-31 04:47:00,78.9,76.1,30.09,SE,131,0.0,1.0,91,0.00,,SCT027,0.00,VWS V14.01,2013-07-31 08:47:00,
2013-07-31 04:52:00,78.8,75.9,30.09,SE,131,0.0,1.0,91,0.00,,SCT027,0.00,VWS V14.01,2013-07-31 08:52:00,
2013-07-31 04:57:00,78.8,75.9,30.09,SE,130,0.0,1.0,91,0.00,,SCT027,0.00,VWS V14.01,2013-07-31 08:57:00,
2013-07-31 05:02:00,78.8,75.9,30.09,SE,130,0.0,0.0,91,0.00,,BKN034,0.00,VWS V14.01,2013-07-31 09:02:00,
2013-07-31 05:07:00,78.8,76.3,30.08,SE,129,0.0,0.0,92,0.00,,BKN034,0.00,VWS V14.01,2013-07-31 09:07:00,
2013-07-31 05:12:00,78.8,76.3,30.09,SE,129,0.0,0.0,92,0.00,,BKN034,0.00,VWS V14.01,2013-07-31 09:12:00,
2013-07-31 05:17:00,78.9,76.7,30.08,SE,128,0.0,0.0,93,0.00,,BKN034,0.00,VWS V14.01,2013-07-31 09:17:00,
2013-07-31 05:22:00,78.9,76.4,30.08,SE,131,0.0,1.0,92,0.00,,BKN034,0.00,VWS V14.01,2013-07-31 09:22:00,
2013-07-31 05:27:00,79.0,76.5,30.09,SE,131,0.0,1.0,92,0.00,,BKN034,0.00,VWS V14.01,2013-07-31 09:27:00,
2013-07-31 05:32:00,79.1,76.6,30.09,SE,131,0.0,1.0,92,0.00,,BKN034,0.00,VWS V14.01,2013-07-31 09:32:00,
2013-07-31 05:37:00,79.1,76.6,30.09,SE,131,0.0,1.0,92,0.00,,BKN034,0.00,VWS V14.01,2013-07-31 09:37:00,
2013-07-31 05:42:00,79.1,76.6,30.09,SE,131,0.0,1.0,92,0.00,,BKN034,0.00,VWS V14.01,2013-07-31 09:42:00,
2013-07-31 05:47:00,79.1,76.6,30.10,SE,131,0.0,1.0,92,0.00,,BKN034,0.00,VWS V14.01,2013-07-31 09:47:00,
2013-07-31 05:52:00,79.1,76.6,30.10,SE,131,0.0,1.0,92,0.00,,BKN034,0.00,VWS V14.01,2013-07-31 09:52:00,
2013-07-31 05:57:00,79.1,76.6,30.10,SE,131,0.0,1.0,92,0.00,,BKN034,0.00,VWS V14.01,2013-07-31 09:57:00,
2013-07-31 06:02:00,79.1,76.6,30.09,SE,131,0.0,0.0,92,0.00,,CLR,0.00,VWS V14.01,2013-07-31 10:02:00,
2013-07-31 06:07:00,79.1,76.6,30.10,SE,131,0.0,0.0,92,0.00,,CLR,0.00,VWS V14.01,2013-07-31 10:07:00,
2013-07-31 06:12:00,79.0,76.5,30.10,SE,131,0.0,0.0,92,0.00,,CLR,0.00,VWS V14.01,2013-07-31 10:12:00,
2013-07-31 06:17:00,79.0,76.5,30.10,SE,131,0.0,0.0,92,0.00,,CLR,0.00,VWS V14.01,2013-07-31 10:17:00,
2013-07-31 06:22:00,79.0,76.5,30.11,SE,131,0.0,0.0,92,0.00,,CLR,0.00,VWS V14.01,2013-07-31 10:22:00,
2013-07-31 06:27:00,79.0,76.5,30.11,SE,131,0.0,0.0,92,0.00,,CLR,0.00,VWS V14.01,2013-07-31 10:27:00,
2013-07-31 06:32:00,79.0,76.5,30.11,SE,131,0.0,0.0,92,0.00,,CLR,0.00,VWS V14.01,2013-07-31 10:32:00,
2013-07-31 06:37:00,78.9,76.4,30.11,SE,131,0.0,0.0,92,0.00,,CLR,0.00,VWS V14.01,2013-07-31 10:37:00,
2013-07-31 06:42:00,78.9,76.4,30.11,SE,131,0.0,0.0,92,0.00,,CLR,0.00,VWS V14.01,2013-07-31 10:42:00,
2013-07-31 06:47:00,78.9,76.4,30.11,SE,131,0.0,0.0,92,0.00,,CLR,0.00,VWS V14.01,2013-07-31 10:47:00,
2013-07-31 06:52:00,78.9,76.4,30.12,SE,131,0.0,0.0,92,0.00,,CLR,0.00,VWS V14.01,2013-07-31 10:52:00,
2013-07-31 06:57:00,78.9,76.4,30.12,SE,131,0.0,0.0,92,0.00,,CLR,0.00,VWS V14.01,2013-07-31 10:57:00,
2013-07-31 07:02:00,78.8,76.3,30.11,SE,131,0.0,0.0,92,0.00,,,0.00,VWS V14.01,2013-07-31 11:02:00,
2013-07-31 07:07:00,78.8,76.3,30.12,SE,132,0.0,0.0,92,0.00,,,0.00,VWS V14.01,2013-07-31 11:07:00,
2013-07-31 07:12:00,78.8,76.3,30.12,SE,132,0.0,0.0,92,0.00,,,0.00,VWS V14.01,2013-07-31 11:12:00,
2013-07-31 07:17:00,78.8,76.3,30.11,SE,132,0.0,0.0,92,0.00,,,0.00,VWS V14.01,2013-07-31 11:17:00,
2013-07-31 07:22:00,78.8,76.6,30.12,SE,132,0.0,0.0,93,0.00,,,0.00,VWS V14.01,2013-07-31 11:22:00,
2013-07-31 07:27:00,78.9,76.7,30.13,SE,132,0.0,0.0,93,0.00,,,0.00,VWS V14.01,2013-07-31 11:27:00,
2013-07-31 07:32:00,79.0,76.8,30.12,SE,131,0.0,1.0,93,0.00,,,0.00,VWS V14.01,2013-07-31 11:32:00,
2013-07-31 07:37:00,79.1,76.9,30.12,SE,131,0.0,1.0,93,0.00,,,0.00,VWS V14.01,2013-07-31 11:37:00,
2013-07-31 07:42:00,79.2,77.3,30.13,SE,131,0.0,1.0,94,0.00,,,0.00,VWS V14.01,2013-07-31 11:42:00,
2013-07-31 07:47:00,79.3,77.4,30.12,SE,131,0.0,1.0,94,0.00,,,0.00,VWS V14.01,2013-07-31 11:47:00,
2013-07-31 07:52:00,79.5,77.6,30.13,SE,131,0.0,1.0,94,0.00,,,0.00,VWS V14.01,2013-07-31 11:52:00,
2013-07-31 07:57:00,79.6,77.7,30.13,SE,131,0.0,1.0,94,0.00,,,0.00,VWS V14.01,2013-07-31 11:57:00,
2013-07-31 08:02:00,79.7,77.8,30.13,SE,131,0.0,0.0,94,0.00,,,0.00,VWS V14.01,2013-07-31 12:02:00,
2013-07-31 08:07:00,79.7,77.5,30.13,ESE,105,0.0,4.0,93,0.00,,,0.00,VWS V14.01,2013-07-31 12:07:00,
2013-07-31 08:12:00,79.7,77.5,30.13,ESE,105,0.0,4.0,93,0.00,,,0.00,VWS V14.01,2013-07-31 12:12:00,
2013-07-31 08:17:00,79.9,77.7,30.13,East,100,0.0,4.0,93,0.00,,,0.00,VWS V14.01,2013-07-31 12:17:00,
2013-07-31 08:22:00,80.0,77.8,30.13,East,98,0.0,4.0,93,0.00,,,0.00,VWS V14.01,2013-07-31 12:22:00,
2013-07-31 08:27:00,80.1,77.6,30.13,ESE,105,0.0,4.0,92,0.00,,,0.00,VWS V14.01,2013-07-31 12:27:00,
2013-07-31 08:32:00,80.2,77.3,30.14,NE,44,1.0,4.0,91,0.00,,,0.00,VWS V14.01,2013-07-31 12:32:00,
2013-07-31 08:37:00,80.5,77.3,30.14,ENE,63,0.0,4.0,90,0.00,,,0.00,VWS V14.01,2013-07-31 12:37:00,
2013-07-31 08:42:00,80.8,77.6,30.13,ENE,63,0.0,4.0,90,0.00,,,0.00,VWS V14.01,2013-07-31 12:42:00,
2013-07-31 08:47:00,81.1,77.6,30.14,ESE,103,5.0,5.0,89,0.00,,,0.00,VWS V14.01,2013-07-31 12:47:00,
2013-07-31 08:52:00,81.3,78.1,30.14,ENE,67,0.0,5.0,90,0.00,,,0.00,VWS V14.01,2013-07-31 12:52:00,
2013-07-31 08:57:00,81.6,78.1,30.15,NE,46,0.0,5.0,89,0.00,,,0.00,VWS V14.01,2013-07-31 12:57:00,
2013-07-31 09:02:00,81.8,78.2,30.14,ESE,104,0.0,3.0,89,0.00,,FEW010,0.00,VWS V14.01,2013-07-31 13:02:00,
2013-07-31 09:07:00,82.1,78.5,30.14,East,98,0.0,4.0,89,0.00,,FEW010,0.00,VWS V14.01,2013-07-31 13:07:00,
2013-07-31 09:12:00,82.4,77.8,30.14,NE,48,2.0,5.0,86,0.00,,FEW010,0.00,VWS V14.01,2013-07-31 13:12:00,
2013-07-31 09:17:00,82.7,77.7,30.15,ESE,114,2.0,5.0,85,0.00,,FEW010,0.00,VWS V14.01,2013-07-31 13:17:00,
2013-07-31 09:22:00,82.9,77.9,30.14,ESE,115,0.0,5.0,85,0.00,,FEW010,0.00,VWS V14.01,2013-07-31 13:22:00,
2013-07-31 09:27:00,83.1,77.8,30.15,SE,125,7.0,8.0,84,0.00,,FEW010,0.00,VWS V14.01,2013-07-31 13:27:00,
2013-07-31 09:32:00,83.4,78.1,30.15,NNE,28,0.0,8.0,84,0.00,,FEW010,0.00,VWS V14.01,2013-07-31 13:32:00,
2013-07-31 09:37:00,83.8,78.4,30.15,SE,140,5.0,8.0,84,0.00,,FEW010,0.00,VWS V14.01,2013-07-31 13:37:00,
2013-07-31 09:42:00,84.0,78.3,30.15,ESE,115,4.0,8.0,83,0.00,,FEW010,0.00,VWS V14.01,2013-07-31 13:42:00,
2013-07-31 09:47:00,84.2,78.1,30.16,East,81,0.0,8.0,82,0.00,,FEW010,0.00,VWS V14.01,2013-07-31 13:47:00,
2013-07-31 09:52:00,84.4,78.7,30.15,SE,124,1.0,8.0,83,0.00,,FEW010,0.00,VWS V14.01,2013-07-31 13:52:00,
2013-07-31 09:57:00,84.5,78.4,30.16,SE,138,5.0,8.0,82,0.00,,FEW010,0.00,VWS V14.01,2013-07-31 13:57:00,
2013-07-31 10:02:00,84.7,78.6,30.15,SE,131,6.0,7.0,82,0.00,,FEW019,0.00,VWS V14.01,2013-07-31 14:02:00,
2013-07-31 10:07:00,84.8,78.7,30.15,SSE,149,0.0,7.0,82,0.00,,FEW019,0.00,VWS V14.01,2013-07-31 14:07:00,
2013-07-31 10:12:00,85.1,78.6,30.15,SSE,147,2.0,7.0,81,0.00,,FEW019,0.00,VWS V14.01,2013-07-31 14:12:00,
2013-07-31 10:17:00,85.3,78.4,30.16,East,89,8.0,11.0,80,0.00,,FEW019,0.00,VWS V14.01,2013-07-31 14:17:00,
2013-07-31 10:22:00,85.5,78.6,30.15,East,98,4.0,11.0,80,0.00,,FEW019,0.00,VWS V14.01,2013-07-31 14:22:00,
2013-07-31 10:27:00,85.6,78.0,30.16,SE,127,4.0,11.0,78,0.00,,FEW019,0.00,VWS V14.01,2013-07-31 14:27:00,
2013-07-31 10:32:00,85.8,78.5,30.15,SSE,154,2.0,11.0,79,0.00,,FEW019,0.00,VWS V14.01,2013-07-31 14:32:00,
2013-07-31 10:37:00,86.2,78.2,30.15,ENE,73,3.0,11.0,77,0.00,,FEW019,0.00,VWS V14.01,2013-07-31 14:37:00,
2013-07-31 10:42:00,85.9,78.2,30.15,SE,126,4.0,11.0,78,0.00,,FEW019,0.00,VWS V14.01,2013-07-31 14:42:00,
2013-07-31 10:47:00,86.1,78.1,30.15,SE,126,3.0,11.0,77,0.00,,FEW019,0.00,VWS V14.01,2013-07-31 14:47:00,
2013-07-31 10:52:00,86.1,78.1,30.16,East,96,3.0,11.0,77,0.00,,FEW019,0.00,VWS V14.01,2013-07-31 14:52:00,
2013-07-31 10:58:00,86.2,78.2,30.15,East,100,5.0,11.0,77,0.00,,FEW019,0.00,VWS V14.01,2013-07-31 14:58:00,
2013-07-31 11:03:00,86.4,77.5,30.16,East,94,3.0,8.0,75,0.00,,SCT024,0.00,VWS V14.01,2013-07-31 15:03:00,
2013-07-31 11:08:00,86.4,77.9,30.16,SE,127,2.0,9.0,76,0.00,,SCT024,0.00,VWS V14.01,2013-07-31 15:08:00,
2013-07-31 11:13:00,86.5,78.0,30.16,East,96,5.0,9.0,76,0.00,,SCT024,0.00,VWS V14.01,2013-07-31 15:13:00,
2013-07-31 11:18:00,86.7,77.8,30.16,SSW,201,0.0,9.0,75,0.00,,SCT024,0.00,VWS V14.01,2013-07-31 15:18:00,
2013-07-31 11:23:00,86.8,77.9,30.15,SE,145,4.0,9.0,75,0.00,,SCT024,0.00,VWS V14.01,2013-07-31 15:23:00,
2013-07-31 11:28:00,87.0,78.1,30.15,East,84,6.0,9.0,75,0.00,,SCT024,0.00,VWS V14.01,2013-07-31 15:28:00,
2013-07-31 11:33:00,87.0,78.1,30.15,ESE,107,6.0,9.0,75,0.00,,SCT024,0.00,VWS V14.01,2013-07-31 15:33:00,
2013-07-31 11:38:00,87.3,78.4,30.16,East,94,3.0,10.0,75,0.00,,SCT024,0.00,VWS V14.01,2013-07-31 15:38:00,
2013-07-31 11:43:00,87.3,78.8,30.15,SE,138,3.0,10.0,76,0.00,,SCT024,0.00,VWS V14.01,2013-07-31 15:43:00,
2013-07-31 11:48:00,87.5,79.0,30.15,ESE,113,5.0,10.0,76,0.00,,SCT024,0.00,VWS V14.01,2013-07-31 15:48:00,
2013-07-31 11:53:00,87.7,78.8,30.15,SE,128,6.0,10.0,75,0.00,,SCT024,0.00,VWS V14.01,2013-07-31 15:53:00,
2013-07-31 11:58:00,87.8,78.9,30.16,ESE,118,7.0,13.0,75,0.00,,SCT024,0.00,VWS V14.01,2013-07-31 15:58:00,
2013-07-31 12:03:00,87.9,79.0,30.15,SE,131,4.0,11.0,75,0.00,,SCT024,0.00,VWS V14.01,2013-07-31 16:03:00,
2013-07-31 12:08:00,88.1,79.2,30.16,East,80,4.0,11.0,75,0.00,,SCT024,0.00,VWS V14.01,2013-07-31 16:08:00,
2013-07-31 12:13:00,88.0,78.7,30.15,East,90,6.0,13.0,74,0.00,,SCT024,0.00,VWS V14.01,2013-07-31 16:13:00,
2013-07-31 12:18:00,87.6,78.3,30.15,East,101,4.0,13.0,74,0.00,,SCT024,0.00,VWS V14.01,2013-07-31 16:18:00,
2013-07-31 12:23:00,87.5,77.8,30.15,ENE,57,3.0,13.0,73,0.00,,SCT024,0.00,VWS V14.01,2013-07-31 16:23:00,
2013-07-31 12:28:00,87.4,78.5,30.15,SSE,152,6.0,13.0,75,0.00,,SCT024,0.00,VWS V14.01,2013-07-31 16:28:00,
2013-07-31 12:32:00,87.6,78.3,30.16,ESE,111,7.0,13.0,74,0.00,,SCT024,0.00,VWS V14.01,2013-07-31 16:32:00,
2013-07-31 12:37:00,87.6,78.3,30.15,East,99,6.0,13.0,74,0.00,,SCT024,0.00,VWS V14.01,2013-07-31 16:37:00,
2013-07-31 12:42:00,87.6,78.3,30.15,SE,136,8.0,13.0,74,0.00,,SCT024,0.00,VWS V14.01,2013-07-31 16:42:00,
2013-07-31 12:47:00,87.9,78.6,30.15,SE,142,5.0,13.0,74,0.00,,SCT024,0.00,VWS V14.01,2013-07-31 16:47:00,
2013-07-31 12:52:00,87.8,77.7,30.14,ESE,102,10.0,13.0,72,0.00,,SCT024,0.00,VWS V14.01,2013-07-31 16:52:00,
2013-07-31 12:57:00,87.7,78.0,30.15,ESE,114,6.0,13.0,73,0.00,,SCT024,0.00,VWS V14.01,2013-07-31 16:57:00,
2013-07-31 13:02:00,87.6,78.3,30.14,East,98,5.0,7.0,74,0.00,,SCT026,0.00,VWS V14.01,2013-07-31 17:02:00,
2013-07-31 13:07:00,87.7,78.0,30.14,SE,124,11.0,11.0,73,0.00,,SCT026,0.00,VWS V14.01,2013-07-31 17:07:00,
2013-07-31 13:12:00,87.8,78.1,30.15,ESE,104,3.0,11.0,73,0.00,,SCT026,0.00,VWS V14.01,2013-07-31 17:12:00,
2013-07-31 13:17:00,88.1,78.4,30.14,ENE,61,5.0,13.0,73,0.00,,SCT026,0.00,VWS V14.01,2013-07-31 17:17:00,
2013-07-31 13:22:00,88.1,78.4,30.14,ESE,103,5.0,13.0,73,0.00,,SCT026,0.00,VWS V14.01,2013-07-31 17:22:00,
2013-07-31 13:27:00,88.3,77.7,30.14,East,99,6.0,13.0,71,0.00,,SCT026,0.00,VWS V14.01,2013-07-31 17:27:00,
2013-07-31 13:32:00,88.5,77.5,30.13,ENE,73,3.0,13.0,70,0.00,,SCT026,0.00,VWS V14.01,2013-07-31 17:32:00,
2013-07-31 13:37:00,88.2,77.2,30.13,East,85,4.0,13.0,70,0.00,,SCT026,0.00,VWS V14.01,2013-07-31 17:37:00,
2013-07-31 13:42:00,88.1,77.1,30.13,ESE,110,6.0,13.0,70,0.00,,SCT026,0.00,VWS V14.01,2013-07-31 17:42:00,
2013-07-31 13:47:00,87.8,77.2,30.13,East,87,9.0,13.0,71,0.00,,SCT026,0.00,VWS V14.01,2013-07-31 17:47:00,
2013-07-31 13:52:00,87.8,76.4,30.13,NE,51,5.0,13.0,69,0.00,,SCT026,0.00,VWS V14.01,2013-07-31 17:52:00,
2013-07-31 13:57:00,87.4,76.8,30.12,ESE,109,4.0,13.0,71,0.00,,SCT026,0.00,VWS V14.01,2013-07-31 17:57:00,
2013-07-31 14:02:00,87.8,76.8,30.12,ESE,104,4.0,13.0,70,0.00,,SCT026,0.00,VWS V14.01,2013-07-31 18:02:00,
2013-07-31 14:07:00,88.0,77.4,30.11,ESE,109,7.0,13.0,71,0.00,,SCT026,0.00,VWS V14.01,2013-07-31 18:07:00,
2013-07-31 14:12:00,88.0,76.6,30.12,ESE,123,2.0,14.0,69,0.00,,SCT026,0.00,VWS V14.01,2013-07-31 18:12:00,
2013-07-31 14:17:00,88.3,77.7,30.11,SE,136,7.0,14.0,71,0.00,,SCT026,0.00,VWS V14.01,2013-07-31 18:17:00,
2013-07-31 14:22:00,88.3,78.6,30.11,ESE,103,6.0,14.0,73,0.00,,SCT026,0.00,VWS V14.01,2013-07-31 18:22:00,
2013-07-31 14:27:00,88.7,78.5,30.11,ESE,117,10.0,14.0,72,0.00,,SCT026,0.00,VWS V14.01,2013-07-31 18:27:00,
2013-07-31 14:32:00,88.7,78.9,30.10,SE,137,7.0,14.0,73,0.00,,SCT026,0.00,VWS V14.01,2013-07-31 18:32:00,
2013-07-31 14:37:00,88.9,79.1,30.11,SE,124,3.0,14.0,73,0.00,,SCT026,0.00,VWS V14.01,2013-07-31 18:37:00,
2013-07-31 14:42:00,89.0,78.8,30.10,SE,143,5.0,14.0,72,0.00,,SCT026,0.00,VWS V14.01,2013-07-31 18:42:00,
2013-07-31 14:47:00,89.1,78.9,30.10,SSE,154,6.0,14.0,72,0.00,,SCT026,0.00,VWS V14.01,2013-07-31 18:47:00,
2013-07-31 14:52:00,89.1,78.9,30.10,ESE,115,10.0,14.0,72,0.00,,SCT026,0.00,VWS V14.01,2013-07-31 18:52:00,
2013-07-31 14:57:00,89.2,78.6,30.10,ESE,121,9.0,14.0,71,0.00,,SCT026,0.00,VWS V14.01,2013-07-31 18:57:00,
2013-07-31 15:02:00,89.4,79.2,30.10,ESE,122,4.0,12.0,72,0.00,,SCT022,0.00,VWS V14.01,2013-07-31 19:02:00,
2013-07-31 15:07:00,89.4,78.8,30.10,SE,137,9.0,15.0,71,0.00,,SCT022,0.00,VWS V14.01,2013-07-31 19:07:00,
2013-07-31 15:12:00,89.5,78.9,30.10,ESE,119,7.0,15.0,71,0.00,,SCT022,0.00,VWS V14.01,2013-07-31 19:12:00,
2013-07-31 15:17:00,89.3,78.7,30.10,East,93,12.0,15.0,71,0.00,,SCT022,0.00,VWS V14.01,2013-07-31 19:17:00,
2013-07-31 15:22:00,89.1,78.0,30.09,East,95,12.0,15.0,70,0.00,,SCT022,0.00,VWS V14.01,2013-07-31 19:22:00,
2013-07-31 15:27:00,88.5,77.9,30.09,ESE,111,9.0,15.0,71,0.00,,SCT022,0.00,VWS V14.01,2013-07-31 19:27:00,
2013-07-31 15:32:00,88.5,77.9,30.09,ESE,114,5.0,15.0,71,0.00,,SCT022,0.00,VWS V14.01,2013-07-31 19:32:00,
2013-07-31 15:37:00,88.6,78.0,30.09,ESE,116,8.0,15.0,71,0.00,,SCT022,0.00,VWS V14.01,2013-07-31 19:37:00,
2013-07-31 15:42:00,88.5,78.3,30.09,SE,124,8.0,15.0,72,0.00,,SCT022,0.00,VWS V14.01,2013-07-31 19:42:00,
2013-07-31 15:47:00,88.5,78.3,30.09,ESE,115,7.0,15.0,72,0.00,,SCT022,0.00,VWS V14.01,2013-07-31 19:47:00,
2013-07-31 15:52:00,88.5,77.9,30.09,SSE,162,4.0,15.0,71,0.00,,SCT022,0.00,VWS V14.01,2013-07-31 19:52:00,
2013-07-31 15:57:00,88.6,78.0,30.08,ENE,66,6.0,15.0,71,0.00,,SCT022,0.00,VWS V14.01,2013-07-31 19:57:00,
2013-07-31 16:02:00,88.4,77.8,30.08,ESE,112,5.0,13.0,71,0.00,,CLR,0.00,VWS V14.01,2013-07-31 20:02:00,
2013-07-31 16:07:00,88.3,77.7,30.08,ESE,106,6.0,13.0,71,0.00,,CLR,0.00,VWS V14.01,2013-07-31 20:07:00,
2013-07-31 16:12:00,88.5,78.3,30.08,SSE,158,9.0,16.0,72,0.00,,CLR,0.00,VWS V14.01,2013-07-31 20:12:00,
2013-07-31 16:17:00,88.9,78.3,30.08,ESE,106,11.0,16.0,71,0.00,,CLR,0.00,VWS V14.01,2013-07-31 20:17:00,
2013-07-31 16:22:00,89.1,78.5,30.08,SE,129,5.0,16.0,71,0.00,,CLR,0.00,VWS V14.01,2013-07-31 20:22:00,
2013-07-31 16:27:00,89.2,79.4,30.08,ESE,107,9.0,16.0,73,0.00,,CLR,0.00,VWS V14.01,2013-07-31 20:27:00,
2013-07-31 16:32:00,89.2,79.4,30.07,ESE,120,11.0,16.0,73,0.00,,CLR,0.00,VWS V14.01,2013-07-31 20:32:00,
2013-07-31 16:37:00,89.1,78.0,30.07,SE,124,6.0,16.0,70,0.00,,CLR,0.00,VWS V14.01,2013-07-31 20:37:00,
2013-07-31 16:42:00,89.0,76.6,30.07,South,186,6.0,16.0,67,0.00,,CLR,0.00,VWS V14.01,2013-07-31 20:42:00,
2013-07-31 16:47:00,89.2,77.7,30.07,ESE,123,6.0,16.0,69,0.00,,CLR,0.00,VWS V14.01,2013-07-31 20:47:00,
2013-07-31 16:52:00,89.2,77.7,30.07,SSE,159,2.0,16.0,69,0.00,,CLR,0.00,VWS V14.01,2013-07-31 20:52:00,
2013-07-31 16:57:00,89.1,77.2,30.07,SSE,164,10.0,16.0,68,0.00,,CLR,0.00,VWS V14.01,2013-07-31 20:57:00,
2013-07-31 17:02:00,89.2,76.4,30.07,SE,128,4.0,13.0,66,0.00,,CLR,0.00,VWS V14.01,2013-07-31 21:02:00,
2013-07-31 17:07:00,89.1,75.8,30.07,ESE,115,10.0,13.0,65,0.00,,CLR,0.00,VWS V14.01,2013-07-31 21:07:00,
2013-07-31 17:12:00,89.1,76.3,30.06,SE,136,9.0,13.0,66,0.00,,CLR,0.00,VWS V14.01,2013-07-31 21:12:00,
2013-07-31 17:17:00,89.0,76.2,30.06,SSE,166,5.0,13.0,66,0.00,,CLR,0.00,VWS V14.01,2013-07-31 21:17:00,
2013-07-31 17:22:00,89.0,76.2,30.07,SE,124,6.0,13.0,66,0.00,,CLR,0.00,VWS V14.01,2013-07-31 21:22:00,
2013-07-31 17:27:00,88.8,76.0,30.06,ESE,112,5.0,13.0,66,0.00,,CLR,0.00,VWS V14.01,2013-07-31 21:27:00,
2013-07-31 17:32:00,88.7,75.9,30.06,ESE,107,8.0,13.0,66,0.00,,CLR,0.00,VWS V14.01,2013-07-31 21:32:00,
2013-07-31 17:37:00,88.8,76.4,30.06,SE,132,10.0,13.0,67,0.00,,CLR,0.00,VWS V14.01,2013-07-31 21:37:00,
2013-07-31 17:42:00,88.6,76.2,30.07,East,97,10.0,14.0,67,0.00,,CLR,0.00,VWS V14.01,2013-07-31 21:42:00,
2013-07-31 17:47:00,88.5,75.7,30.06,ESE,121,6.0,14.0,66,0.00,,CLR,0.00,VWS V14.01,2013-07-31 21:47:00,
2013-07-31 17:52:00,88.4,76.1,30.06,SSE,151,5.0,14.0,67,0.00,,CLR,0.00,VWS V14.01,2013-07-31 21:52:00,
2013-07-31 17:57:00,88.2,75.9,30.05,ESE,122,3.0,14.0,67,0.00,,CLR,0.00,VWS V14.01,2013-07-31 21:57:00,
2013-07-31 18:02:00,88.2,75.4,30.06,ESE,123,5.0,15.0,66,0.00,,CLR,0.00,VWS V14.01,2013-07-31 22:02:00,
2013-07-31 18:07:00,88.0,76.1,30.06,SSE,147,1.0,15.0,68,0.00,,CLR,0.00,VWS V14.01,2013-07-31 22:07:00,
2013-07-31 18:12:00,88.0,75.2,30.06,ESE,102,9.0,15.0,66,0.00,,CLR,0.00,VWS V14.01,2013-07-31 22:12:00,
2013-07-31 18:17:00,87.8,75.5,30.06,ESE,115,5.0,15.0,67,0.00,,CLR,0.00,VWS V14.01,2013-07-31 22:17:00,
2013-07-31 18:22:00,87.6,75.7,30.05,SE,143,5.0,15.0,68,0.00,,CLR,0.00,VWS V14.01,2013-07-31 22:22:00,
2013-07-31 18:27:00,87.6,75.7,30.06,South,170,6.0,15.0,68,0.00,,CLR,0.00,VWS V14.01,2013-07-31 22:27:00,
2013-07-31 18:32:00,87.4,75.6,30.07,SE,132,3.0,15.0,68,0.00,,CLR,0.00,VWS V14.01,2013-07-31 22:32:00,
2013-07-31 18:37:00,87.4,76.0,30.06,SE,125,4.0,15.0,69,0.00,,CLR,0.00,VWS V14.01,2013-07-31 22:37:00,
2013-07-31 18:42:00,87.3,76.3,30.06,ESE,107,5.0,15.0,70,0.00,,CLR,0.00,VWS V14.01,2013-07-31 22:42:00,
2013-07-31 18:47:00,87.2,76.2,30.06,SE,129,3.0,15.0,70,0.00,,CLR,0.00,VWS V14.01,2013-07-31 22:47:00,
2013-07-31 18:52:00,87.1,75.7,30.08,ESE,117,6.0,15.0,69,0.00,,CLR,0.00,VWS V14.01,2013-07-31 22:52:00,
2013-07-31 18:57:00,87.1,76.1,30.07,SSE,150,5.0,15.0,70,0.00,,CLR,0.00,VWS V14.01,2013-07-31 22:57:00,
2013-07-31 19:02:00,86.9,75.9,30.06,SE,132,6.0,10.0,70,0.00,,CLR,0.00,VWS V14.01,2013-07-31 23:02:00,
2013-07-31 19:07:00,86.7,75.3,30.06,SSE,165,5.0,10.0,69,0.00,,CLR,0.00,VWS V14.01,2013-07-31 23:07:00,
2013-07-31 19:12:00,86.6,75.2,30.07,SSE,148,3.0,11.0,69,0.00,,CLR,0.00,VWS V14.01,2013-07-31 23:12:00,
2013-07-31 19:17:00,86.4,75.5,30.07,SE,143,5.0,11.0,70,0.00,,CLR,0.00,VWS V14.01,2013-07-31 23:17:00,
2013-07-31 19:22:00,86.2,76.1,30.08,South,173,1.0,11.0,72,0.00,,CLR,0.00,VWS V14.01,2013-07-31 23:22:00,
2013-07-31 19:27:00,86.0,75.9,30.07,SSE,160,3.0,11.0,72,0.00,,CLR,0.00,VWS V14.01,2013-07-31 23:27:00,
2013-07-31 19:32:00,85.7,75.6,30.07,SSE,153,5.0,11.0,72,0.00,,CLR,0.00,VWS V14.01,2013-07-31 23:32:00,
2013-07-31 19:37:00,85.5,75.4,30.08,SSE,149,2.0,11.0,72,0.00,,CLR,0.00,VWS V14.01,2013-07-31 23:37:00,
2013-07-31 19:42:00,85.4,75.3,30.06,SE,139,8.0,11.0,72,0.00,,CLR,0.00,VWS V14.01,2013-07-31 23:42:00,
2013-07-31 19:47:00,85.2,75.6,30.07,SSE,165,1.0,11.0,73,0.00,,CLR,0.00,VWS V14.01,2013-07-31 23:47:00,
2013-07-31 19:52:00,85.1,75.5,30.07,SE,136,3.0,11.0,73,0.00,,CLR,0.00,VWS V14.01,2013-07-31 23:52:00,
2013-07-31 19:57:00,84.9,75.7,30.07,SSE,155,3.0,11.0,74,0.00,,CLR,0.00,VWS V14.01,2013-07-31 23:57:00,
2013-07-31 20:02:00,84.8,76.0,30.07,SE,132,2.0,7.0,75,0.00,,CLR,0.00,VWS V14.01,2013-08-01 00:02:00,
2013-07-31 20:07:00,84.7,76.3,30.08,SSE,165,0.0,7.0,76,0.00,,CLR,0.00,VWS V14.01,2013-08-01 00:07:00,
2013-07-31 20:12:00,84.6,75.8,30.08,SE,132,3.0,7.0,75,0.00,,CLR,0.00,VWS V14.01,2013-08-01 00:12:00,
2013-07-31 20:17:00,84.6,75.8,30.08,SE,133,2.0,7.0,75,0.00,,CLR,0.00,VWS V14.01,2013-08-01 00:17:00,
2013-07-31 20:22:00,84.6,76.2,30.08,SE,132,0.0,7.0,76,0.00,,CLR,0.00,VWS V14.01,2013-08-01 00:22:00,
2013-07-31 20:27:00,84.5,76.5,30.07,SE,126,0.0,7.0,77,0.00,,CLR,0.00,VWS V14.01,2013-08-01 00:27:00,
2013-07-31 20:32:00,84.4,76.4,30.08,SE,136,1.0,7.0,77,0.00,,CLR,0.00,VWS V14.01,2013-08-01 00:32:00,
2013-07-31 20:37:00,84.4,76.4,30.08,SE,131,0.0,7.0,77,0.00,,CLR,0.00,VWS V14.01,2013-08-01 00:37:00,
2013-07-31 20:42:00,84.4,76.8,30.07,SSE,148,0.0,7.0,78,0.00,,CLR,0.00,VWS V14.01,2013-08-01 00:42:00,
2013-07-31 20:48:00,84.3,77.1,30.08,ESE,118,3.0,7.0,79,0.00,,CLR,0.00,VWS V14.01,2013-08-01 00:48:00,
2013-07-31 20:52:00,84.2,76.6,30.08,SE,130,0.0,7.0,78,0.00,,CLR,0.00,VWS V14.01,2013-08-01 00:52:00,
2013-07-31 20:57:00,84.2,76.6,30.07,SE,128,2.0,7.0,78,0.00,,CLR,0.00,VWS V14.01,2013-08-01 00:57:00,
2013-07-31 21:02:00,84.1,76.9,30.07,ESE,114,8.0,10.0,79,0.00,,CLR,0.00,VWS V14.01,2013-08-01 01:02:00,
2013-07-31 21:07:00,84.0,76.8,30.07,SSE,148,0.0,10.0,79,0.00,,CLR,0.00,VWS V14.01,2013-08-01 01:07:00,
2013-07-31 21:12:00,83.8,76.6,30.07,SE,138,0.0,10.0,79,0.00,,CLR,0.00,VWS V14.01,2013-08-01 01:12:00,
2013-07-31 21:17:00,83.7,76.5,30.07,SE,133,0.0,10.0,79,0.00,,CLR,0.00,VWS V14.01,2013-08-01 01:17:00,
2013-07-31 21:22:00,83.7,76.5,30.07,SE,137,0.0,10.0,79,0.00,,CLR,0.00,VWS V14.01,2013-08-01 01:22:00,
2013-07-31 21:27:00,83.6,76.4,30.08,SE,128,1.0,10.0,79,0.00,,CLR,0.00,VWS V14.01,2013-08-01 01:27:00,
2013-07-31 21:28:00,83.6,76.4,30.08,SE,145,3.0,10.0,79,0.00,,CLR,0.00,VWS V14.01,2013-08-01 01:28:00,
2013-07-31 21:33:00,83.5,76.3,30.07,SE,140,3.0,10.0,79,0.00,,CLR,0.00,VWS V14.01,2013-08-01 01:33:00,
2013-07-31 21:38:00,83.4,76.2,30.08,SSE,148,5.0,10.0,79,0.00,,CLR,0.00,VWS V14.01,2013-08-01 01:38:00,
2013-07-31 21:43:00,83.4,76.2,30.08,SE,142,0.0,10.0,79,0.00,,CLR,0.00,VWS V14.01,2013-08-01 01:43:00,
2013-07-31 21:48:00,83.3,76.1,30.09,SSE,160,0.0,10.0,79,0.00,,CLR,0.00,VWS V14.01,2013-08-01 01:48:00,
2013-07-31 21:53:00,83.3,76.1,30.08,SE,143,0.0,10.0,79,0.00,,CLR,0.00,VWS V14.01,2013-08-01 01:53:00,
2013-07-31 21:58:00,83.2,76.0,30.09,South,189,0.0,10.0,79,0.00,,CLR,0.00,VWS V14.01,2013-08-01 01:58:00,
2013-07-31 22:03:00,83.1,75.9,30.09,South,189,1.0,1.0,79,0.00,,CLR,0.00,VWS V14.01,2013-08-01 02:03:00,
2013-07-31 22:08:00,83.1,75.9,30.10,South,189,0.0,1.0,79,0.00,,CLR,0.00,VWS V14.01,2013-08-01 02:08:00,
2013-07-31 22:13:00,83.1,75.9,30.10,South,189,0.0,1.0,79,0.00,,CLR,0.00,VWS V14.01,2013-08-01 02:13:00,
2013-07-31 22:18:00,83.1,76.3,30.10,South,185,0.0,1.0,80,0.00,,CLR,0.00,VWS V14.01,2013-08-01 02:18:00,
2013-07-31 22:23:00,83.1,76.3,30.10,South,185,0.0,1.0,80,0.00,,CLR,0.00,VWS V14.01,2013-08-01 02:23:00,
2013-07-31 22:28:00,83.0,76.2,30.10,South,186,0.0,1.0,80,0.00,,CLR,0.00,VWS V14.01,2013-08-01 02:28:00,
2013-07-31 22:33:00,83.0,76.6,30.10,South,182,0.0,1.0,81,0.00,,CLR,0.00,VWS V14.01,2013-08-01 02:33:00,
2013-07-31 22:38:00,83.0,76.6,30.10,South,183,0.0,1.0,81,0.00,,CLR,0.00,VWS V14.01,2013-08-01 02:38:00,
2013-07-31 22:43:00,82.9,76.1,30.10,South,184,0.0,1.0,80,0.00,,CLR,0.00,VWS V14.01,2013-08-01 02:43:00,
2013-07-31 22:48:00,82.9,76.1,30.10,South,184,0.0,1.0,80,0.00,,CLR,0.00,VWS V14.01,2013-08-01 02:48:00,
2013-07-31 22:52:00,82.8,76.4,30.10,South,184,0.0,1.0,81,0.00,,CLR,0.00,VWS V14.01,2013-08-01 02:52:00,
2013-07-31 22:57:00,82.8,76.0,30.10,South,189,0.0,1.0,80,0.00,,CLR,0.00,VWS V14.01,2013-08-01 02:57:00,
2013-07-31 23:02:00,82.7,75.9,30.10,South,188,0.0,0.0,80,0.00,,CLR,0.00,VWS V14.01,2013-08-01 03:02:00,
2013-07-31 23:07:00,82.7,76.3,30.10,South,183,0.0,0.0,81,0.00,,CLR,0.00,VWS V14.01,2013-08-01 03:07:00,
2013-07-31 23:12:00,82.6,76.2,30.11,South,187,0.0,0.0,81,0.00,,CLR,0.00,VWS V14.01,2013-08-01 03:12:00,
2013-07-31 23:17:00,82.5,75.7,30.10,South,189,0.0,0.0,80,0.00,,CLR,0.00,VWS V14.01,2013-08-01 03:17:00,
2013-07-31 23:22:00,82.5,76.1,30.10,South,188,0.0,0.0,81,0.00,,CLR,0.00,VWS V14.01,2013-08-01 03:22:00,
2013-07-31 23:27:00,82.4,76.0,30.10,South,187,0.0,0.0,81,0.00,,CLR,0.00,VWS V14.01,2013-08-01 03:27:00,
2013-07-31 23:32:00,82.3,75.9,30.11,South,186,0.0,0.0,81,0.00,,CLR,0.00,VWS V14.01,2013-08-01 03:32:00,
2013-07-31 23:37:00,82.2,75.8,30.10,South,189,0.0,0.0,81,0.00,,CLR,0.00,VWS V14.01,2013-08-01 03:37:00,
2013-07-31 23:42:00,82.2,75.8,30.10,South,189,0.0,0.0,81,0.00,,CLR,0.00,VWS V14.01,2013-08-01 03:42:00,
2013-07-31 23:47:00,82.1,75.7,30.10,South,189,0.0,0.0,81,0.00,,CLR,0.00,VWS V14.01,2013-08-01 03:47:00,
2013-07-31 23:52:00,81.9,75.9,30.10,South,186,0.0,0.0,82,0.00,,CLR,0.00,VWS V14.01,2013-08-01 03:52:00,
2013-07-31 23:57:00,81.8,75.8,30.10,South,183,0.0,0.0,82,0.00,,CLR,0.00,VWS V14.01,2013-08-01 03:57:00,